Location: Okie-Tex Star Party
(36.8978°N, 102.9520°W)
Time: 20:54:45
(UTC-06:00)

Amateur Radio Satellites - All Passes

Search period start: 28 February 2015 20:24
Search period end: 01 March 2015 20:24
Location: Okie-Tex Star Party, 36.8978°N, 102.9520°W

Satellite Date Start Highest point End Downlink Frequencies (MHz)
Time Altitude Azimuth
AIST 2 28 Feb 20:26:26 20:29:30 18° 312° (NW) 20:32:29 435.215
Oscar 11 28 Feb 20:28:46 20:29:10 10° 66° (ENE) 20:29:51 145.826/435.025
O/OREOS (USA 219) 28 Feb 20:34:59 20:39:36 87° 251° (WSW) 20:44:10 437.305
AAUSAT CUBESAT 2 28 Feb 20:49:15 20:53:04 37° 73° (ENE) 20:56:54 437.432
COMPASS 1 28 Feb 20:49:54 20:53:50 44° 74° (ENE) 20:57:49 437.405
PCSat 28 Feb 20:51:18 20:55:43 27° 109° (ESE) 21:00:16 145.827
DOVE 4 28 Feb 20:51:21 20:56:27 55° 74° (ENE) 21:01:21 437.250
PHONESAT 2.4 28 Feb 21:04:30 21:08:06 58° 348° (NNW) 21:11:41 2401.200-2431.200
FUNcube-1 28 Feb 21:06:54 21:09:06 14° 68° (ENE) 21:11:30 145.935
ZACube-1 28 Feb 21:07:12 21:09:31 15° 68° (ENE) 21:12:00 437.345
CANX-2 28 Feb 21:13:25 21:17:34 56° 260° (W) 21:21:43 2200.000
SEEDS 28 Feb 21:13:42 21:17:53 75° 260° (W) 21:22:04 437.485
CINEMA 3 28 Feb 21:16:15 21:20:58 52° 75° (ENE) 21:25:31 145.822/145.860
VERMONT LUNAR 28 Feb 21:17:00 21:20:22 44° 358° (N) 21:23:43 437.305
UKube-1 28 Feb 21:18:47 21:21:47 19° 68° (ENE) 21:24:55 .
UWE-3 28 Feb 21:19:57 21:23:34 25° 71° (ENE) 21:27:12 435.000/436.395/437.385
BRITE-PL 28 Feb 21:27:44 21:32:53 34° 264° (W) 21:37:52 437.365/2234.400
HUMSAT D 28 Feb 21:28:39 21:30:16 12° 67° (ENE) 21:32:06 437.325/437.525
CUTE 1.7 + AOD 2 28 Feb 21:32:40 21:36:35 36° 263° (W) 21:40:29 437.475
GOMX 1 28 Feb 21:44:05 21:48:59 33° 264° (W) 21:53:41 467.674
50 SAT 28 Feb 21:48:15 21:50:10 14° 68° (ENE) 21:52:16 437.505
GONETS M04 28 Feb 21:51:10 21:58:28 33° 87° (E) 22:06:01
CUBEBUG 2 28 Feb 21:51:46 21:56:20 71° 76° (ENE) 22:00:46 437.445
HO-68 28 Feb 21:59:11 22:05:26 31° 265° (W) 22:11:35 435.675
RS-15 28 Feb 21:59:54 22:00:58 10° 99° (E) 22:03:18 29.354- 29.394
Oscar 11 28 Feb 22:00:37 22:04:53 65° 259° (W) 22:09:10 145.826/435.025
DELFI C3 28 Feb 22:09:52 22:13:51 62° 260° (W) 22:17:51 145.870
AISAT 28 Feb 22:14:34 22:18:35 33° 71° (ENE) 22:22:39 437.250
DX 1 28 Feb 22:20:53 22:25:16 79° 258° (WSW) 22:29:41 434.975-435.025
VELOX 1 28 Feb 22:24:56 22:29:08 42° 73° (ENE) 22:33:23 145.980
AAUSAT CUBESAT 2 28 Feb 22:26:26 22:28:55 15° 269° (W) 22:31:13 437.432
CUBEBUG 1 28 Feb 22:26:47 22:29:46 18° 68° (ENE) 22:32:54 437.445
COMPASS 1 28 Feb 22:27:55 22:29:51 13° 270° (W) 22:31:34 437.405
DOVE 4 28 Feb 22:31:19 22:34:31 16° 269° (W) 22:37:25 437.250
ESTCUBE 1 28 Feb 22:33:01 22:36:34 24° 70° (ENE) 22:40:15 437.505/2401.250
PCSat 28 Feb 22:33:57 22:39:00 38° 304° (NW) 22:44:01 145.827
FUNcube-1 28 Feb 22:40:53 22:45:09 47° 261° (W) 22:49:20 145.935
ZACube-1 28 Feb 22:41:20 22:45:36 45° 261° (W) 22:49:46 437.345
PHONESAT 2.4 28 Feb 22:43:20 22:46:52 47° 5° (N) 22:50:23 2401.200-2431.200
UNISAT 6 28 Feb 22:49:41 22:53:14 26° 96° (E) 22:56:53 437.425
UKube-1 28 Feb 22:53:45 22:57:43 34° 262° (W) 23:01:42 .
VERMONT LUNAR 28 Feb 22:55:05 22:58:33 66° 14° (NNE) 23:02:01 437.305
CINEMA 3 28 Feb 22:55:46 22:58:28 14° 269° (W) 23:00:52 145.822/145.860
UWE-3 28 Feb 22:56:14 23:00:04 26° 265° (W) 23:03:42 435.000/436.395/437.385
HUMSAT D 28 Feb 23:01:35 23:05:42 50° 261° (W) 23:09:47 437.325/437.525
NANOSAT C BR1 28 Feb 23:03:23 23:06:23 19° 93° (E) 23:09:30 145.865
SPROUT 28 Feb 23:08:47 23:10:31 13° 67° (ENE) 23:12:28 437.525
TIGRISAT 28 Feb 23:15:23 23:19:33 50° 99° (E) 23:23:45 435.000
TISAT 1 28 Feb 23:19:39 23:22:02 15° 68° (ENE) 23:24:35 437.305
50 SAT 28 Feb 23:21:07 23:24:53 40° 262° (W) 23:28:39 437.505
ANTELSAT 28 Feb 23:27:41 23:31:58 74° 101° (ESE) 23:36:19 437.575/2403.000
QB50P1 28 Feb 23:34:50 23:38:55 46° 99° (E) 23:42:58 145.935-145.965
QB50P2 28 Feb 23:37:52 23:42:00 51° 100° (E) 23:46:07 145.880/145.840
GONETS M04 28 Feb 23:46:44 23:55:05 48° 284° (WNW) 00:03:22
AISAT 28 Feb 23:51:54 23:55:18 20° 267° (W) 23:58:34 437.250
DUCHIFAT 1 28 Feb 23:54:47 23:59:02 81° 102° (ESE) 00:03:14 145.980
BUGSAT 1 28 Feb 23:56:19 00:00:27 61° 101° (E) 00:04:30 437.445
CUSAT 1 28 Feb 23:57:45 00:03:11 27° 95° (E) 00:07:45 437.405
RS-15 01 Mar 00:00:55 00:11:38 67° 115° (ESE) 00:22:29 29.354- 29.394
CUBEBUG 1 01 Mar 00:01:47 00:05:54 37° 263° (W) 00:10:02 437.445
VELOX 1 01 Mar 00:03:07 00:05:57 16° 268° (W) 00:08:36 145.980
ESTCUBE 1 01 Mar 00:09:26 00:13:22 28° 264° (W) 00:17:15 437.505/2401.250
POLYITAN 1 01 Mar 00:12:36 00:16:46 59° 285° (WNW) 00:20:54 437.675
POPSAT HIP 1 01 Mar 00:14:13 00:18:23 57° 285° (WNW) 00:22:29 437.405
PHONESAT 2.4 01 Mar 00:21:51 00:25:28 74° 203° (SSW) 00:29:04 2401.200-2431.200
UNISAT 6 01 Mar 00:26:31 00:29:59 24° 289° (WNW) 00:33:22 437.425
VERMONT LUNAR 01 Mar 00:33:14 00:36:22 31° 210° (SSW) 00:39:27 437.305
NANOSAT C BR1 01 Mar 00:38:37 00:42:20 30° 289° (WNW) 00:45:58 145.865
SPROUT 01 Mar 00:41:57 00:46:13 54° 260° (W) 00:50:29 437.525
TISAT 1 01 Mar 00:53:27 00:57:32 42° 261° (W) 01:01:37 437.305
TIGRISAT 01 Mar 00:53:58 00:55:57 13° 293° (WNW) 00:57:44 435.000
DANDE 01 Mar 00:56:44 01:04:10 75° 98° (E) 01:09:50 436.750
SWISSCUBE 01 Mar 01:10:09 01:14:37 43° 73° (ENE) 01:19:10 437.505
QB50P1 01 Mar 01:12:17 01:14:27 13° 293° (WNW) 01:16:25 145.935-145.965
QB50P2 01 Mar 01:15:42 01:17:32 12° 293° (WNW) 01:19:08 145.880/145.840
BEESAT 01 Mar 01:19:04 01:23:38 49° 73° (ENE) 01:28:16 436.000
BUGSAT 1 01 Mar 01:35:02 01:35:28 10° 295° (WNW) 01:35:38 437.445
CUSAT 1 01 Mar 01:39:43 01:46:02 39° 281° (WNW) 01:50:54 437.405
ITUPSAT 1 01 Mar 01:44:54 01:49:42 89° 291° (WNW) 01:54:31 437.325
ITAMSAT 1 01 Mar 01:51:23 01:52:14 11° 88° (E) 01:53:31 435.822/435.867
Oscar 19 01 Mar 01:54:16 01:59:04 40° 98° (E) 02:03:53 437.125/150
PHONESAT 2.4 01 Mar 02:01:19 02:03:35 16° 215° (SW) 02:05:44 2401.200-2431.200
KKS-1 01 Mar 02:03:39 02:07:19 26° 70° (ENE) 02:11:05 437.445
STARS 01 Mar 02:14:57 02:18:19 22° 69° (ENE) 02:21:48 437.465
RS-15 01 Mar 02:15:00 02:24:51 36° 318° (NW) 02:34:41 29.354- 29.394
SO-50 01 Mar 02:21:12 02:25:34 49° 116° (ESE) 02:30:08 436.795
DANDE 01 Mar 02:43:37 02:47:41 16° 288° (WNW) 02:50:56 436.750
Gurwin Techsat 1B 01 Mar 02:48:21 02:53:05 32° 96° (E) 02:57:51 435.225
SWISSCUBE 01 Mar 02:49:30 02:52:45 17° 268° (W) 02:55:49 437.505
BEESAT 01 Mar 02:58:59 03:01:50 15° 269° (W) 03:04:28 436.000
BEESAT 3 01 Mar 03:00:50 03:04:39 35° 54° (NE) 03:08:25 437.485
AIST 2 01 Mar 03:11:26 03:14:12 17° 47° (NE) 03:17:02 435.215
BEESAT 2 01 Mar 03:24:00 03:28:05 53° 57° (ENE) 03:32:05 435.950
M-CUBED/EXP-1 PRIME 01 Mar 03:24:55 03:26:51 15° 64° (ENE) 03:28:55 437.505
ITAMSAT 1 01 Mar 03:27:13 03:32:28 78° 285° (WNW) 03:37:39 435.822/435.867
AUBIESAT-1 01 Mar 03:28:36 03:30:29 15° 64° (ENE) 03:32:30 437.475
Oscar 19 01 Mar 03:34:16 03:38:12 22° 292° (WNW) 03:42:00 437.125/150
KKS-1 01 Mar 03:40:09 03:43:55 26° 265° (W) 03:47:38 437.445
STARS 01 Mar 03:50:44 03:54:40 30° 264° (W) 03:58:33 437.465
YUBILEINY 01 Mar 03:50:47 03:59:22 54° 77° (ENE) 04:07:59 435.215
JUGNU 01 Mar 03:50:56 03:53:26 13° 172° (S) 03:56:00 437.505
HORYU 2 01 Mar 03:59:03 04:03:15 41° 99° (E) 04:07:29 437.375
SO-50 01 Mar 04:03:01 04:06:27 19° 314° (NW) 04:09:51 436.795
JAS-2 01 Mar 04:10:55 04:16:46 25° 92° (E) 04:23:05 435.910
Gurwin Techsat 1B 01 Mar 04:28:27 04:32:59 28° 291° (WNW) 04:37:24 435.225
AO-7 01 Mar 04:29:40 04:37:28 45° 100° (E) 04:45:19 29.400- 29.500
RS-15 01 Mar 04:36:16 04:42:03 15° 351° (N) 04:47:45 29.354- 29.394
MOZHAYETS 4 01 Mar 04:37:02 04:41:27 54° 75° (ENE) 04:45:56
BEESAT 3 01 Mar 04:39:38 04:42:30 18° 249° (WSW) 04:45:15 437.485
AIST 2 01 Mar 04:49:00 04:53:07 47° 244° (WSW) 04:57:07 435.215
M-CUBED/EXP-1 PRIME 01 Mar 04:59:00 05:01:42 23° 259° (W) 05:04:25 437.505
AUBIESAT-1 01 Mar 05:02:30 05:05:14 24° 259° (W) 05:07:59 437.475
BEESAT 2 01 Mar 05:04:16 05:05:51 12° 251° (WSW) 05:07:11 435.950
HORYU 2 01 Mar 05:36:46 05:39:38 16° 293° (WNW) 05:42:20 437.375
SRMSAT 01 Mar 05:37:09 05:39:53 13° 173° (S) 05:42:40 437.500
JUGNU 01 Mar 05:38:30 05:41:40 15° 182° (S) 05:44:50 437.505
PCSat 01 Mar 05:41:46 05:44:56 16° 46° (NE) 05:48:16 145.827
YUBILEINY 01 Mar 05:48:23 05:55:49 30° 274° (W) 06:02:58 435.215
STRAND 1 01 Mar 05:54:25 05:57:53 19° 66° (ENE) 06:01:32 437.568
JAS-2 01 Mar 05:54:51 06:02:10 63° 287° (WNW) 06:09:52 435.910
MOZHAYETS 4 01 Mar 06:17:03 06:19:07 12° 271° (W) 06:20:55
AO-7 01 Mar 06:22:40 06:30:11 39° 297° (WNW) 06:37:31 29.400- 29.500
PRISM 01 Mar 06:24:17 06:28:20 61° 75° (ENE) 06:32:28 437.425
CUBESAT XI-V 01 Mar 06:30:38 06:35:16 66° 75° (ENE) 06:39:57 437.345
Cubesat XI-IV 01 Mar 06:40:11 06:45:10 38° 97° (E) 06:50:09 437.490
CUTE-I 01 Mar 06:49:35 06:54:44 47° 99° (E) 06:59:53 437.470
RS-15 01 Mar 06:52:39 07:00:35 21° 27° (NNE) 07:09:05 29.354- 29.394
PCSat 01 Mar 07:23:37 07:29:03 77° 245° (WSW) 07:34:27 145.827
SRMSAT 01 Mar 07:25:09 07:28:17 14° 183° (S) 07:31:24 437.500
JUGNU 01 Mar 07:28:52 07:29:55 10° 192° (SSW) 07:30:52 437.505
STRAND 1 01 Mar 07:31:49 07:36:45 47° 261° (W) 07:41:44 437.568
AIST 1 01 Mar 07:41:33 07:45:38 43° 93° (E) 07:49:49
JAS-2 01 Mar 07:43:52 07:46:11 11° 301° (WNW) 07:47:57 435.910
GONETS M04 01 Mar 08:05:41 08:09:14 13° 60° (ENE) 08:13:29
CUBESAT XI-V 01 Mar 08:12:06 08:13:16 11° 272° (W) 08:14:06 437.345
Cubesat XI-IV 01 Mar 08:20:45 08:25:05 25° 293° (WNW) 08:29:17 437.490
CUTE-I 01 Mar 08:30:34 08:34:31 21° 294° (WNW) 08:38:17 437.470
DOVE 4 01 Mar 08:55:00 08:57:14 14° 90° (E) 08:59:38 437.250
SEEDS 01 Mar 09:01:15 09:04:25 21° 94° (E) 09:07:42 437.485
CANX-2 01 Mar 09:01:26 09:05:05 28° 96° (E) 09:08:47 2200.000
RS-15 01 Mar 09:04:34 09:15:55 65° 55° (NE) 09:27:50 29.354- 29.394
O/OREOS (USA 219) 01 Mar 09:07:59 09:10:14 14° 100° (E) 09:12:45 437.305
CINEMA 3 01 Mar 09:15:45 09:17:25 12° 90° (E) 09:19:18 145.822/145.860
CUTE 1.7 + AOD 2 01 Mar 09:20:00 09:24:02 42° 98° (E) 09:28:06 437.475
AIST 1 01 Mar 09:21:18 09:23:38 14° 290° (WNW) 09:25:46
HO-68 01 Mar 09:28:03 09:35:07 58° 101° (ESE) 09:42:11 435.675
BRITE-PL 01 Mar 09:35:23 09:39:59 75° 284° (WNW) 09:44:15 437.365/2234.400
CUBEBUG 2 01 Mar 09:46:43 09:49:11 16° 92° (E) 09:51:50 437.445
UNISAT 6 01 Mar 09:47:22 09:50:24 19° 69° (ENE) 09:53:31 437.425
GOMX 1 01 Mar 09:48:33 09:52:58 82° 281° (W) 09:57:09 467.674
ISS 01 Mar 09:50:35 09:53:46 68° 138° (SE) 09:56:59 145.825
Oscar 11 01 Mar 09:50:43 09:54:19 26° 95° (E) 09:57:59 145.826/435.025
DELFI C3 01 Mar 09:52:50 09:55:53 21° 94° (E) 09:59:02 145.870
NANOSAT C BR1 01 Mar 09:55:36 09:57:11 12° 67° (ENE) 09:58:59 145.865
GONETS M04 01 Mar 09:59:07 10:07:54 77° 82° (E) 10:16:42
AAUSAT CUBESAT 2 01 Mar 10:09:52 10:14:04 81° 283° (WNW) 10:18:16 437.432
COMPASS 1 01 Mar 10:11:11 10:15:21 67° 284° (WNW) 10:19:31 437.405
TIGRISAT 01 Mar 10:12:12 10:16:12 34° 73° (ENE) 10:20:10 435.000
DX 1 01 Mar 10:12:29 10:15:43 21° 94° (E) 10:19:03 434.975-435.025
ANTELSAT 01 Mar 10:24:35 10:28:51 49° 74° (ENE) 10:33:05 437.575/2403.000
QB50P1 01 Mar 10:25:49 10:29:24 27° 71° (ENE) 10:33:03 145.935-145.965
QB50P2 01 Mar 10:28:57 10:32:38 30° 72° (ENE) 10:36:25 145.880/145.840
DOVE 4 01 Mar 10:31:19 10:35:19 38° 287° (WNW) 10:39:09 437.250
FUNcube-1 01 Mar 10:31:49 10:35:37 35° 97° (E) 10:39:28 145.935
ZACube-1 01 Mar 10:32:26 10:36:16 37° 97° (E) 10:40:10 437.345
SEEDS 01 Mar 10:36:38 10:40:16 28° 288° (WNW) 10:43:51 437.485
CANX-2 01 Mar 10:37:38 10:40:54 21° 290° (WNW) 10:44:05 2200.000
UKube-1 01 Mar 10:43:23 10:47:33 45° 99° (E) 10:51:43 .
BUGSAT 1 01 Mar 10:44:18 10:48:06 32° 72° (ENE) 10:51:56 437.445
O/OREOS (USA 219) 01 Mar 10:44:54 10:49:17 47° 294° (WNW) 10:53:44 437.305
DUCHIFAT 1 01 Mar 10:45:04 10:49:08 44° 74° (ENE) 10:53:13 145.980
UWE-3 01 Mar 10:47:46 10:51:55 73° 101° (E) 10:56:05 435.000/436.395/437.385
HUMSAT D 01 Mar 10:48:30 10:52:02 28° 96° (E) 10:55:39 437.325/437.525
CINEMA 3 01 Mar 10:51:00 10:54:59 43° 286° (WNW) 10:58:54 145.822/145.860
SO-50 01 Mar 10:55:00 10:59:10 27° 49° (NE) 11:03:24 436.795
CUTE 1.7 + AOD 2 01 Mar 10:57:12 10:59:40 15° 292° (WNW) 11:01:58 437.475
50 SAT 01 Mar 11:02:08 11:05:32 27° 96° (E) 11:08:58 437.505
POLYITAN 1 01 Mar 11:03:10 11:07:27 76° 77° (ENE) 11:11:46 437.675
POPSAT HIP 1 01 Mar 11:04:30 11:08:47 78° 77° (ENE) 11:13:06 437.405
HO-68 01 Mar 11:16:41 11:22:26 26° 297° (WNW) 11:27:59 435.675
RS-15 01 Mar 11:17:47 11:27:53 35° 253° (WSW) 11:37:57 29.354- 29.394
CUBEBUG 2 01 Mar 11:22:17 11:26:05 34° 287° (WNW) 11:29:50 437.445
UNISAT 6 01 Mar 11:22:55 11:27:00 34° 263° (W) 11:30:59 437.425
Oscar 11 01 Mar 11:26:56 11:30:26 24° 290° (WNW) 11:33:50 145.826/435.025
DELFI C3 01 Mar 11:27:38 11:31:06 26° 288° (WNW) 11:34:30 145.870
ISS 01 Mar 11:28:25 11:30:31 16° 335° (NNW) 11:32:35 145.825
NANOSAT C BR1 01 Mar 11:28:26 11:32:38 54° 260° (W) 11:36:50 145.865
DANDE 01 Mar 11:43:39 11:45:51 22° 75° (ENE) 11:48:01 436.750
AISAT 01 Mar 11:43:49 11:48:17 87° 281° (W) 11:52:42 437.250
DX 1 01 Mar 11:48:11 11:52:02 30° 289° (WNW) 11:55:48 434.975-435.025
TIGRISAT 01 Mar 11:49:55 11:53:05 18° 267° (W) 11:56:04 435.000
CUBEBUG 1 01 Mar 11:52:51 11:57:07 47° 99° (E) 12:01:21 437.445
VELOX 1 01 Mar 11:54:08 11:58:34 69° 285° (WNW) 12:02:57 145.980
GONETS M04 01 Mar 11:57:58 12:03:56 20° 278° (W) 12:09:24
QB50P1 01 Mar 12:01:50 12:05:17 22° 266° (W) 12:08:38 145.935-145.965
ESTCUBE 1 01 Mar 12:03:45 12:08:19 71° 102° (ESE) 12:12:51 437.505/2401.250
ANTELSAT 01 Mar 12:03:53 12:05:59 13° 269° (W) 12:07:49 437.575/2403.000
QB50P2 01 Mar 12:05:21 12:08:37 20° 266° (W) 12:11:46 145.880/145.840
FUNcube-1 01 Mar 12:09:06 12:11:45 16° 291° (WNW) 12:14:14 145.935
ZACube-1 01 Mar 12:09:51 12:12:25 16° 291° (WNW) 12:14:50 437.345
BUGSAT 1 01 Mar 12:20:34 12:23:40 19° 267° (W) 12:26:39 437.445
UKube-1 01 Mar 12:20:53 12:23:23 15° 293° (WNW) 12:25:43 .
CUSAT 1 01 Mar 12:22:05 12:24:32 36° 264° (W) 12:27:01 437.405
DUCHIFAT 1 01 Mar 12:22:58 12:25:15 14° 269° (W) 12:27:20 145.980
HUMSAT D 01 Mar 12:24:40 12:27:41 20° 290° (WNW) 12:30:37 437.325/437.525
SPROUT 01 Mar 12:31:21 12:35:07 30° 96° (E) 12:38:55 437.525
SO-50 01 Mar 12:35:17 12:39:50 36° 246° (WSW) 12:44:16 436.795
50 SAT 01 Mar 12:37:35 12:40:24 19° 290° (WNW) 12:43:07 437.505
TISAT 1 01 Mar 12:40:38 12:44:29 34° 97° (E) 12:48:19 437.305
ITAMSAT 1 01 Mar 13:06:21 13:09:03 15° 64° (ENE) 13:12:00 435.822/435.867
Oscar 19 01 Mar 13:08:51 13:13:44 46° 72° (ENE) 13:18:39 437.125/150
SWISSCUBE 01 Mar 13:14:36 13:16:45 13° 90° (E) 13:19:11 437.505
BEESAT 01 Mar 13:23:05 13:25:45 15° 91° (E) 13:28:38 436.000
CUBEBUG 1 01 Mar 13:30:40 13:33:08 14° 293° (WNW) 13:35:25 437.445
ESTCUBE 1 01 Mar 13:43:35 13:44:40 11° 295° (WNW) 13:45:30 437.505/2401.250
ITUPSAT 1 01 Mar 13:48:24 13:52:30 28° 96° (E) 13:56:40 437.325
Gurwin Techsat 1B 01 Mar 14:07:09 14:12:04 41° 72° (ENE) 14:17:04 435.225
SPROUT 01 Mar 14:07:50 14:11:04 20° 291° (WNW) 14:14:11 437.525
TISAT 1 01 Mar 14:17:10 14:20:05 18° 291° (WNW) 14:22:50 437.305
ITAMSAT 1 01 Mar 14:42:54 14:48:04 65° 259° (WSW) 14:53:17 435.822/435.867
Oscar 19 01 Mar 14:49:47 14:53:23 18° 268° (W) 14:56:47 437.125/150
SWISSCUBE 01 Mar 14:50:20 14:55:04 56° 286° (WNW) 14:59:45 437.505
HORYU 2 01 Mar 14:55:34 14:59:22 30° 71° (ENE) 15:03:15 437.375
BEESAT 01 Mar 14:59:18 15:03:57 49° 287° (WNW) 15:08:33 436.000
AO-7 01 Mar 15:25:58 15:33:51 50° 66° (ENE) 15:41:50 29.400- 29.500
ITUPSAT 1 01 Mar 15:26:16 15:30:21 27° 291° (WNW) 15:34:20 437.325
KKS-1 01 Mar 15:32:45 15:37:12 73° 101° (ESE) 15:41:37 437.445
STARS 01 Mar 15:42:20 15:46:41 58° 101° (E) 15:50:59 437.465
Gurwin Techsat 1B 01 Mar 15:48:09 15:52:16 22° 267° (W) 15:56:14 435.225
JAS-2 01 Mar 16:05:30 16:10:34 44° 70° (ENE) 16:16:14 435.910
ISS 01 Mar 16:20:14 16:23:10 31° 33° (NNE) 16:26:08 145.825
HORYU 2 01 Mar 16:32:36 16:36:05 22° 266° (W) 16:39:28 437.375
MOZHAYETS 4 01 Mar 16:35:48 16:38:29 16° 91° (E) 16:41:22
M-CUBED/EXP-1 PRIME 01 Mar 16:41:23 16:44:53 25° 101° (E) 16:48:41 437.505
AUBIESAT-1 01 Mar 16:44:32 16:48:00 24° 101° (E) 16:51:44 437.475
YUBILEINY 01 Mar 16:48:21 16:56:54 67° 93° (E) 17:05:36 435.215
BEESAT 3 01 Mar 16:55:15 16:56:19 11° 109° (ESE) 16:57:38 437.485
VERMONT LUNAR 01 Mar 17:17:17 17:19:23 15° 145° (SE) 17:21:33 437.305
BEESAT 2 01 Mar 17:17:34 17:20:17 18° 111° (ESE) 17:23:11 435.950
AO-7 01 Mar 17:19:29 17:26:55 34° 264° (W) 17:34:10 29.400- 29.500
STARS 01 Mar 17:21:00 17:22:43 12° 294° (WNW) 17:24:11 437.465
JAS-2 01 Mar 17:52:02 17:56:08 21° 270° (W) 18:00:18 435.910
ISS 01 Mar 17:56:53 17:59:30 22° 229° (SW) 18:02:05 145.825
Cubesat XI-IV 01 Mar 17:59:52 18:05:02 51° 73° (ENE) 18:10:15 437.490
CUTE-I 01 Mar 18:09:06 18:14:22 62° 74° (ENE) 18:19:42 437.470
MOZHAYETS 4 01 Mar 18:11:35 18:16:00 45° 286° (WNW) 18:20:24
PRISM 01 Mar 18:12:13 18:12:49 10° 90° (E) 18:13:43 437.425
M-CUBED/EXP-1 PRIME 01 Mar 18:16:06 18:19:47 28° 292° (WNW) 18:23:37 437.505
AUBIESAT-1 01 Mar 18:19:06 18:22:50 29° 292° (WNW) 18:26:43 437.475
BEESAT 3 01 Mar 18:29:58 18:33:59 56° 303° (WNW) 18:38:03 437.485
CUBESAT XI-V 01 Mar 18:30:43 18:34:05 20° 92° (E) 18:37:36 437.345
AIST 2 01 Mar 18:44:34 18:48:45 63° 117° (ESE) 18:53:01 435.215
YUBILEINY 01 Mar 18:47:38 18:54:34 24° 293° (WNW) 19:01:12 435.215
PHONESAT 2.4 01 Mar 18:48:48 18:52:10 37° 152° (SSE) 18:55:35 2401.200-2431.200
VERMONT LUNAR 01 Mar 18:53:29 18:56:58 75° 159° (SSE) 19:00:28 437.305
BEESAT 2 01 Mar 18:54:25 18:58:14 36° 306° (NW) 19:02:06 435.950
BRITE-PL 01 Mar 19:08:06 19:10:04 12° 65° (ENE) 19:12:21 437.365/2234.400
O/OREOS (USA 219) 01 Mar 19:18:36 19:21:59 20° 58° (ENE) 19:25:27 437.305
AIST 1 01 Mar 19:28:23 19:32:46 68° 266° (W) 19:37:07
Cubesat XI-IV 01 Mar 19:41:49 19:45:30 18° 269° (W) 19:48:58 437.490
STRAND 1 01 Mar 19:44:27 19:49:36 70° 101° (ESE) 19:54:44 437.568
PRISM 01 Mar 19:44:35 19:48:45 56° 286° (WNW) 19:52:52 437.425
CUTE-I 01 Mar 19:51:56 19:54:58 15° 270° (W) 19:57:43 437.470
SEEDS 01 Mar 19:53:16 19:54:41 12° 67° (ENE) 19:56:19 437.485
CANX-2 01 Mar 19:53:28 19:55:59 16° 69° (ENE) 19:58:40 2200.000
HO-68 01 Mar 19:54:33 20:00:45 35° 66° (ENE) 20:07:06 435.675
DOVE 4 01 Mar 19:58:11 20:01:11 16° 68° (ENE) 20:04:19 437.250
CUBESAT XI-V 01 Mar 20:07:21 20:11:41 36° 288° (WNW) 20:15:56 437.345
CUTE 1.7 + AOD 2 01 Mar 20:11:23 20:14:41 23° 71° (ENE) 20:18:04 437.475
CINEMA 3 01 Mar 20:16:07 20:17:44 12° 67° (ENE) 20:19:35 145.822/145.860
